Theta_e
290 289 286 288 290 288 287 286 288 286 286 283 283 282 283 282 283 283 282 283 282 284 284 287 286 285 287 289 291 291 285 283 285 285 286 286 287 286 285 285 285 285 286 287 286 286 285 285 284 285 285 285 285 285 285 285 286 286 287 288 287 288 287 287 288 287 287 286 286 285 285 284 285 285 286 286 286 286 286 286 286 286 285 285 284 284
291 288 289 290 289 287 285 283 281 281 282 285 283 281 283 281 282 285 285 283 281 285 282 281 282 284 286 288 290 291 286 288 287 285 285 287 287 286 285 285 285 286 287 285 284 284 284 284 284 284 284 286 284 284 284 285 286 286 286 287 287 287 286 287 287 287 287 287 286 285 285 285 284 284 284 284 284 285 286 286 286 285 285 284 284 284
287 287 292 288 286 281 279 281 282 284 283 282 283 281 281 283 282 283 283 281 282 282 283 282 282 286 288 290 292 292 291 292 292 288 289 289 288 287 286 286 286 285 285 284 285 284 284 284 284 283 284 284 285 285 285 286 286 285 285 286 287 286 286 286 286 286 287 287 287 286 285 285 284 285 284 284 285 285 285 285 285 285 284 284 284 283
288 286 289 284 282 283 280 280 282 281 280 282 280 282 283 283 283 282 283 281 284 284 283 283 283 285 289 290 291 293 292 293 292 290 289 290 290 288 287 287 286 285 285 284 284 284 283 283 283 283 283 284 284 285 284 284 285 285 286 285 285 286 286 286 286 288 287 287 286 286 285 285 284 283 285 285 285 284 284 284 284 284 284 284 283 283
289 287 283 281 283 285 282 281 282 282 283 281 283 282 282 283 283 283 283 281 280 282 280 282 284 287 287 287 288 285 283 285 289 288 289 289 289 289 289 288 287 287 286 285 285 284 283 282 283 283 283 283 284 284 284 284 284 284 285 285 285 285 285 286 287 288 288 287 286 285 284 284 284 284 283 283 282 283 283 283 283 283 283 283 283 282
288 287 281 284 284 283 283 282 281 284 281 278 281 285 285 283 284 281 280 282 281 281 281 282 283 284 282 283 285 285 283 286 284 286 288 289 288 287 287 287 287 287 287 286 285 284 284 283 283 283 283 283 283 284 285 285 285 285 285 285 285 285 285 285 285 286 286 286 284 283 282 281 281 281 281 280 281 281 281 281 283 283 282 282 282 282
289 283 285 287 284 283 284 284 281 285 282 283 284 282 283 282 283 282 281 283 278 277 283 281 280 280 282 286 284 282 283 286 288 285 289 290 286 286 287 288 287 286 286 286 286 285 284 283 283 283 282 283 283 284 285 285 284 285 285 285 285 285 285 285 285 285 286 284 284 283 282 282 281 280 281 282 282 282 282 282 281 282 282 282 281 281
283 282 282 283 284 284 283 283 282 284 283 281 281 279 281 281 281 281 282 283 281 280 281 281 283 280 281 284 287 285 286 288 290 291 290 290 290 287 287 287 287 287 286 285 285 285 284 283 283 282 283 283 284 284 284 284 284 284 284 284 284 284 286 285 285 284 285 284 283 282 282 282 281 281 281 282 281 282 282 282 281 281 281 281 281 280
284 283 283 283 283 281 284 282 282 285 283 280 281 280 280 280 281 279 282 279 278 278 277 278 281 279 279 279 280 281 285 286 288 290 290 290 289 288 288 287 287 287 286 286 285 285 284 283 283 283 283 283 284 284 284 284 284 284 284 284 284 284 285 285 284 284 283 284 283 283 282 281 282 282 281 282 282 281 281 280 280 280 280 280 280 280
285 284 283 285 283 283 281 280 281 285 285 283 280 280 279 278 278 278 276 280 276 274 278 278 280 276 282 281 281 280 283 284 286 288 289 289 289 288 287 286 286 285 285 285 286 286 285 284 284 284 284 283 283 284 285 284 284 284 283 283 283 283 283 283 282 284 283 283 284 282 281 281 280 281 281 280 279 279 280 279 279 279 279 279 279 279
284 285 285 284 285 283 280 280 280 281 282 281 282 282 281 277 276 275 275 274 275 273 280 283 280 282 279 282 282 282 283 285 288 287 286 286 287 287 286 285 285 285 284 284 285 285 285 285 284 283 282 282 283 283 283 283 283 283 283 283 282 283 282 283 282 282 282 281 282 281 281 280 280 280 279 279 278 278 278 278 278 278 278 278 278 278
284 283 285 284 283 281 282 282 281 280 280 282 282 281 281 281 276 273 265 271 272 274 277 277 279 281 276 279 280 284 282 282 289 288 289 288 288 289 285 284 284 284 284 284 284 283 283 282 282 282 282 282 282 282 282 283 283 283 283 282 282 281 281 281 281 281 281 281 281 281 281 280 280 279 279 278 277 278 277 277 277 277 277 277 277 277
283 284 282 285 285 285 282 282 282 281 282 281 280 278 276 272 273 272 268 272 270 275 276 273 277 277 278 284 282 283 285 285 284 286 288 288 289 288 284 283 283 283 283 283 283 283 282 282 281 281 281 282 281 282 282 282 282 282 282 282 282 281 281 281 281 281 281 280 280 280 280 279 280 279 279 278 277 277 277 277 276 276 276 276 276 276
283 280 282 285 284 285 286 286 280 279 280 281 282 276 272 270 269 268 269 263 268 274 275 277 277 277 283 284 288 288 289 288 287 286 286 288 290 289 284 282 282 282 282 282 282 282 282 282 282 281 282 282 282 282 282 282 282 282 282 281 282 281 280 281 280 280 280 280 280 280 279 279 279 278 278 277 277 277 277 277 276 275 275 275 275 275
276 282 282 285 284 285 288 291 288 282 280 282 281 283 280 273 269 270 267 273 278 277 273 275 273 274 274 281 283 290 292 291 287 285 285 285 284 283 281 281 281 281 281 282 281 282 282 282 282 282 282 282 282 282 282 282 282 281 281 281 281 280 280 280 280 280 279 279 279 279 279 278 278 278 277 277 277 277 276 275 275 275 275 274 275 275
282 283 280 285 281 286 286 284 282 282 281 280 279 281 277 279 278 276 272 267 269 273 275 270 277 277 282 282 282 279 281 285 285 285 284 285 284 281 281 282 282 282 281 281 281 281 282 282 282 282 282 282 282 282 282 281 282 281 281 281 281 280 279 279 280 279 279 279 279 278 277 277 277 277 277 277 276 275 275 274 274 274 274 274 274 275
281 280 281 283 281 282 283 281 284 284 283 280 281 279 280 281 283 276 271 268 268 266 276 269 276 282 283 284 281 285 282 284 283 282 281 283 283 280 282 283 282 282 281 281 281 281 281 281 281 282 281 282 281 281 281 281 281 281 281 280 279 279 279 279 279 279 279 278 277 277 277 276 276 276 275 274 274 274 274 274 274 273 273 274 274 274
283 283 281 281 283 283 278 280 280 279 283 281 276 280 282 281 280 278 274 269 262 269 276 270 278 281 282 279 282 283 281 283 285 283 284 284 282 280 283 283 283 283 282 281 281 281 281 281 281 281 282 282 281 281 281 281 281 281 281 280 279 278 278 278 278 278 278 277 277 276 276 276 275 275 274 274 273 273 273 273 273 273 273 273 273 273
288 283 284 281 281 281 280 282 284 283 281 280 278 282 282 276 275 275 269 272 269 267 269 275 281 281 282 282 281 281 281 283 284 283 282 282 280 280 282 283 283 282 280 280 280 280 280 280 281 281 281 281 281 282 281 281 280 280 280 280 279 278 278 278 278 278 278 277 276 276 275 274 274 274 273 273 273 272 272 271 272 272 272 272 273 273
287 285 283 280 280 281 281 282 279 280 282 281 282 281 281 279 272 273 278 271 272 270 266 276 280 278 283 281 284 286 285 284 284 282 282 283 283 282 282 283 283 281 281 280 280 280 281 281 281 281 281 280 280 280 280 279 279 279 279 279 278 278 278 277 277 277 276 275 275 274 274 273 273 273 272 272 271 271 271 271 271 271 271 272 272 272
284 283 283 281 279 280 279 281 282 282 278 277 279 277 277 275 277 276 274 273 275 269 270 271 275 280 284 284 284 287 285 285 285 286 285 285 285 283 283 284 284 282 281 281 281 280 280 280 280 280 281 280 280 280 279 279 279 279 279 278 278 277 276 276 276 275 275 275 274 273 272 272 272 271 271 271 271 270 270 270 271 271 271 271 271 271
282 281 284 280 277 277 281 282 282 283 284 282 282 280 282 278 275 272 276 273 267 272 271 268 275 282 285 285 287 284 283 283 285 287 287 286 285 284 283 283 283 283 281 281 281 281 280 280 280 280 280 280 279 279 278 279 278 277 277 277 277 276 275 275 274 273 273 273 272 271 271 270 270 270 270 269 269 269 270 270 270 270 270 270 270 271
286 281 283 282 283 284 282 280 278 279 283 282 283 282 284 282 280 274 274 276 265 274 269 270 267 279 286 283 283 284 283 283 284 285 286 286 285 283 283 283 282 282 282 282 281 281 280 280 280 279 279 279 279 279 278 278 278 277 276 276 275 275 274 274 273 273 272 271 270 270 270 269 269 269 268 268 268 268 269 269 269 270 269 269 269 270
291 282 279 284 285 280 277 278 278 279 282 281 281 278 280 280 282 282 282 277 274 270 274 267 269 280 287 281 283 282 282 284 283 284 286 286 284 284 283 282 281 281 281 281 280 280 280 279 279 278 278 278 278 278 277 277 277 276 276 275 274 274 273 272 272 271 271 270 269 269 268 268 268 268 268 267 268 268 268 268 268 269 269 269 269 268
283 283 283 279 276 282 279 278 279 279 280 278 279 282 282 283 282 277 274 273 272 278 274 275 272 279 287 278 280 280 280 282 281 280 280 283 283 283 282 281 280 280 280 279 279 279 279 278 278 278 279 279 278 278 277 277 276 276 275 274 273 272 272 271 271 270 269 269 268 268 267 267 267 267 267 267 267 267 268 268 268 268 267 267 267 267
287 283 283 277 277 275 275 276 276 272 278 279 276 277 281 282 281 278 277 276 275 278 276 277 278 284 288 281 280 279 280 281 279 279 279 279 282 281 281 281 280 279 280 279 279 278 278 278 278 278 278 278 278 278 277 276 276 275 274 273 272 271 270 270 270 269 268 268 267 267 267 267 267 267 267 267 267 267 267 267 267 266 266 266 265 265
283 283 286 285 283 281 282 283 281 279 276 277 277 279 281 281 283 283 282 278 277 277 274 279 282 283 285 287 288 284 283 286 286 283 280 281 279 279 280 281 281 280 280 279 279 278 278 277 277 278 278 278 278 277 277 276 275 273 272 271 270 270 269 269 268 268 267 267 267 266 266 266 266 266 266 266 267 267 266 266 265 265 264 264 264 263
280 281 285 286 286 286 287 285 284 282 279 279 279 278 281 280 280 280 279 278 282 274 275 282 283 281 282 286 287 288 289 289 289 290 289 285 284 283 283 282 282 279 279 278 278 277 277 278 278 278 278 277 277 277 276 275 274 272 271 270 269 269 268 268 267 267 266 266 266 266 266 266 266 266 266 266 266 266 265 264 264 264 263 263 262 262
283 283 286 286 285 287 287 287 287 280 281 279 280 281 279 280 279 278 279 282 283 279 278 283 283 281 284 286 288 289 289 289 290 290 291 290 289 285 282 281 280 280 279 277 277 278 277 277 277 278 277 277 277 276 275 273 272 271 270 269 269 268 267 267 267 266 266 266 265 265 266 266 266 266 266 265 265 264 263 263 263 262 262 262 262 262
283 284 286 286 284 285 285 286 286 281 280 281 280 280 282 281 280 280 281 283 282 282 284 284 283 283 286 287 289 290 291 290 290 290 289 287 287 286 284 282 281 280 279 278 278 278 278 278 278 278 277 277 276 275 273 272 271 270 269 268 268 267 267 266 266 265 265 265 265 265 265 265 265 265 265 264 263 263 262 262 261 261 260 261 261 261
284 283 288 286 283 283 284 285 284 283 283 281 283 283 282 282 281 281 281 282 283 282 283 282 281 282 287 290 289 290 291 291 290 289 290 291 290 289 289 288 284 281 280 279 278 278 278 278 278 277 277 276 276 275 273 271 270 269 269 268 267 266 266 266 265 265 264 264 265 264 265 264 264 264 263 262 262 261 261 260 260 260 260 260 260 261
285 283 286 284 281 281 285 284 284 282 281 281 282 283 283 283 281 282 281 282 281 280 282 281 279 281 286 289 287 288 289 289 288 289 290 290 290 290 289 289 289 284 281 280 279 278 278 277 277 277 276 276 276 274 272 270 269 269 268 267 266 266 265 265 265 264 264 264 264 264 264 263 263 262 261 261 260 260 259 259 259 259 259 259 260 260
283 281 281 282 279 279 284 281 280 280 279 278 280 283 285 285 286 286 286 286 284 284 280 279 281 287 288 289 287 287 287 285 287 289 289 289 289 288 288 289 290 287 283 282 280 278 278 278 277 277 277 276 275 274 272 270 269 268 267 266 266 265 264 264 264 264 263 263 263 263 263 262 261 260 260 259 259 259 258 258 258 258 259 259 260 260
282 283 283 285 279 280 283 281 280 278 274 276 287 288 288 285 286 284 284 285 286 285 284 286 287 289 289 289 288 288 288 289 290 291 291 291 290 289 289 290 289 288 287 283 281 280 279 278 278 278 277 277 275 274 271 270 269 268 267 266 265 264 264 263 263 263 262 262 262 262 261 260 260 259 259 258 258 258 258 258 258 259 259 260 260 261
282 283 282 284 280 279 280 278 277 272 275 286 288 286 287 286 286 285 285 286 287 287 287 286 287 288 289 290 290 290 291 291 292 291 292 288 287 290 291 291 287 286 286 284 281 279 279 278 278 277 276 275 273 270 269 268 267 266 265 264 264 263 263 263 262 262 262 262 261 261 260 259 259 258 258 257 257 257 257 258 258 258 259 260 260 260
283 283 283 281 282 276 275 278 272 273 284 285 287 289 289 285 284 281 282 285 285 287 287 286 288 289 290 290 291 291 291 291 292 292 291 286 288 291 290 289 289 288 285 284 282 280 279 278 277 276 275 273 270 269 268 266 266 265 264 264 263 262 262 262 261 261 262 261 260 259 259 258 257 257 257 257 257 256 257 258 258 258 259 259 260 261
287 285 284 279 284 276 277 277 277 283 282 284 284 286 287 284 284 283 280 284 288 289 288 287 288 289 289 290 291 291 291 289 287 289 291 287 289 289 290 290 291 289 286 285 283 281 280 279 278 277 273 270 269 267 266 266 265 264 263 262 262 262 262 261 261 261 260 259 259 258 258 258 257 256 256 256 256 256 257 257 257 258 259 259 259 260
288 284 285 281 279 284 277 276 276 276 273 279 286 290 289 286 287 285 283 282 289 290 291 289 288 289 289 290 290 290 285 284 285 287 291 291 289 288 287 288 287 286 284 282 279 279 278 277 276 273 269 268 267 266 265 264 264 263 262 261 261 261 261 261 261 260 259 259 259 258 257 257 256 256 256 256 255 256 257 257 258 258 259 259 259 259
288 288 286 283 280 282 278 275 275 274 277 285 286 289 288 286 286 282 280 280 288 291 291 291 289 290 290 289 289 288 282 283 284 288 291 291 286 286 286 284 283 281 280 279 278 277 276 274 271 269 268 267 265 265 264 264 263 262 262 261 261 261 261 261 260 259 258 258 258 257 257 256 256 256 255 255 256 256 256 256 257 258 259 259 259 259
285 284 284 280 279 280 279 277 275 280 279 286 288 289 284 285 286 284 275 278 289 291 292 291 289 289 289 289 290 287 285 283 285 289 292 286 285 283 283 281 278 277 277 277 277 277 274 271 269 267 267 266 265 264 263 263 263 262 261 261 261 260 260 260 259 259 258 258 257 257 256 256 255 255 255 255 255 256 256 257 258 258 258 258 259 259
281 282 283 277 279 280 281 278 280 281 287 288 289 285 284 288 287 279 275 284 292 291 290 290 290 290 290 289 288 286 287 290 292 289 276 277 277 276 277 277 277 277 276 275 274 273 269 269 268 267 266 266 264 263 263 263 262 261 261 260 260 260 260 260 259 258 257 257 256 255 255 255 255 254 254 255 255 256 256 257 258 258 257 257 258 258
279 281 281 282 278 278 279 278 277 282 287 291 289 284 288 285 277 278 287 294 293 288 287 289 289 289 289 289 288 289 290 290 289 276 278 277 279 276 275 274 273 272 272 273 272 270 269 269 267 266 265 264 263 263 262 262 262 261 260 260 260 260 260 259 258 257 256 256 255 255 254 254 254 255 254 255 255 255 256 257 257 257 257 257 257 257
279 280 275 279 280 281 280 277 276 274 284 293 286 284 286 285 285 291 292 293 292 290 287 286 287 289 289 288 288 289 290 288 283 281 279 277 276 275 274 273 272 271 270 269 269 269 269 267 266 264 263 262 262 262 263 262 261 260 260 260 260 259 258 257 257 256 255 255 254 253 253 253 253 254 254 254 255 255 255 256 256 256 256 256 256 257
286 282 277 281 283 277 276 275 276 284 289 292 288 284 286 290 294 294 293 291 293 293 290 288 287 288 288 289 288 288 288 286 280 279 278 277 276 275 274 274 273 271 270 269 269 269 268 266 264 263 262 261 262 262 262 262 261 260 260 261 259 258 257 256 255 255 254 253 253 253 253 253 253 254 254 254 255 254 255 255 255 256 256 256 257 258
288 287 287 283 285 284 280 284 288 290 290 291 291 292 292 292 294 294 293 293 292 292 292 290 290 288 287 288 289 288 287 285 283 281 281 279 277 274 273 272 271 270 269 268 268 268 267 265 262 261 260 261 261 261 261 262 261 260 260 259 258 257 256 255 253 253 252 252 252 252 252 252 253 253 253 253 254 254 254 254 254 254 255 256 257 258
293 294 293 290 287 291 292 290 287 289 289 288 291 293 293 292 292 292 292 292 292 293 292 289 290 289 287 287 287 286 287 286 284 281 280 280 277 275 274 272 271 269 269 268 267 266 266 263 261 260 260 260 260 260 261 261 261 260 260 258 258 257 255 253 252 252 251 251 252 252 252 253 253 254 254 254 254 254 254 254 254 255 255 256 258 259
291 292 290 287 289 288 282 292 290 289 290 290 290 291 292 293 292 292 291 291 292 293 291 288 289 288 287 286 287 288 287 286 284 283 281 279 276 274 273 271 270 269 268 267 267 265 262 261 260 260 259 259 259 259 260 259 260 260 258 257 257 255 253 252 252 252 252 251 252 252 252 253 254 254 254 253 254 254 254 255 254 255 256 258 258 259
286 292 288 287 288 286 286 291 292 293 293 292 289 288 288 290 291 292 292 292 292 292 291 290 287 286 286 286 287 287 288 286 284 283 280 279 277 274 273 271 269 269 268 268 266 263 262 261 260 260 259 259 259 259 258 258 258 257 257 256 255 253 252 252 252 252 251 251 252 252 252 253 255 254 254 253 253 254 254 254 255 255 257 258 259 259
287 290 285 287 287 288 290 291 291 290 289 289 288 288 290 291 291 291 292 291 290 288 288 287 287 289 287 287 288 287 287 286 285 284 281 279 276 274 273 271 270 269 267 266 264 262 261 261 260 260 259 259 258 258 257 257 256 256 256 255 253 252 252 252 252 251 251 252 252 253 253 252 252 253 253 253 253 253 254 254 254 257 259 261 262 263
288 285 287 287 284 285 286 288 291 286 286 291 291 290 289 291 291 291 291 289 289 289 289 289 287 286 287 288 288 287 287 287 286 283 281 279 277 275 273 272 269 268 267 265 263 262 262 262 261 260 259 258 258 257 256 255 255 255 255 254 252 252 251 252 251 251 252 252 252 252 253 252 252 252 253 252 253 253 254 257 262 262 261 261 265 268
288 288 288 285 285 284 289 292 292 292 292 293 294 294 293 292 291 290 290 290 290 290 290 289 289 288 286 285 287 287 287 287 287 284 282 280 278 276 274 272 269 267 265 263 262 262 262 261 260 260 258 257 257 256 255 255 254 254 254 253 253 252 252 252 252 252 252 252 252 253 253 252 253 253 253 253 253 253 253 253 254 260 263 265 265 266
Wind_Speed
1 3 6 10 10 9 6 10 8 5 5 2 2 2 8 8 8 6 2 2 1 1 11 16 12 14 18 19 21 10 5 10 13 13 12 13 14 12 11 13 15 16 16 7 9 11 12 12 11 11 10 10 10 10 11 10 9 9 9 7 7 6 4 4 4 3 3 3 2 2 3 3 2 3 3 3 3 3 3 4 4 5 4 5 5 5
1 2 13 12 7 9 7 4 4 5 1 3 3 4 8 3 10 4 2 2 4 2 5 4 7 14 18 17 20 12 6 17 18 13 14 19 16 11 12 15 16 16 3 7 8 10 10 11 11 9 9 11 13 11 11 12 11 10 8 9 8 5 5 6 5 5 3 3 3 2 3 2 2 3 3 3 2 3 3 4 5 5 5 5 5 5
1 8 14 3 5 6 6 5 3 5 4 1 4 3 3 9 6 9 3 2 0 2 9 7 11 17 19 18 21 20 17 17 14 12 18 18 17 11 12 15 14 10 12 10 13 11 13 12 12 10 10 11 13 13 12 11 10 9 8 8 7 6 7 6 6 4 4 4 4 3 2 2 2 2 3 3 4 4 5 4 5 5 5 5 5 5
4 8 11 3 7 7 3 3 4 3 2 5 2 2 9 3 3 8 2 3 1 2 6 5 15 19 17 17 22 22 10 14 9 12 16 15 15 13 16 15 13 15 13 15 15 16 14 14 13 11 12 12 11 11 10 10 11 9 8 9 8 8 7 7 6 6 6 5 4 3 2 2 2 4 4 5 5 5 6 6 4 4 5 5 7 6
14 2 0 6 4 5 4 2 5 4 5 2 5 6 5 4 5 8 5 5 4 1 1 10 13 15 8 12 9 3 2 3 10 6 12 13 10 9 6 8 14 17 17 16 14 14 14 16 18 18 14 11 13 13 13 12 11 8 11 10 10 8 8 7 6 6 5 3 2 1 1 1 3 2 3 4 4 4 5 7 6 6 5 6 7 7
13 7 5 5 2 2 4 3 7 7 6 3 8 13 9 4 6 4 3 3 5 4 3 5 11 13 2 3 8 7 6 6 3 5 13 12 8 8 11 14 10 12 12 16 17 18 19 19 16 13 13 15 13 14 13 12 11 10 10 10 9 7 7 7 7 7 5 5 4 3 2 2 2 4 2 4 5 5 5 7 6 6 5 6 7 7
8 2 6 6 5 4 4 5 5 7 6 0 7 6 7 5 4 1 1 2 4 2 1 3 4 19 7 2 3 2 2 9 6 6 13 8 7 9 13 11 10 12 11 10 11 13 16 18 16 16 16 17 16 14 11 10 10 10 10 10 9 9 7 6 6 6 5 5 4 5 4 3 4 5 5 3 4 5 6 6 7 7 6 5 7 6
3 1 5 3 4 5 3 9 5 11 6 6 1 4 5 5 5 5 2 3 6 0 5 1 4 9 20 6 5 4 4 8 13 16 11 13 11 11 12 10 11 11 11 12 14 16 18 18 20 21 19 16 16 12 11 11 10 12 11 10 10 7 7 7 6 6 5 6 5 4 5 4 4 5 7 6 6 5 6 7 8 7 7 6 6 6
4 3 4 4 3 5 9 5 6 9 8 3 2 6 6 5 4 5 2 4 1 4 6 4 1 3 11 2 4 1 4 9 14 17 14 11 9 10 10 10 11 10 11 13 13 17 19 19 20 18 17 15 13 13 13 12 11 10 10 10 8 8 7 6 7 6 5 5 5 5 4 4 4 5 6 5 5 6 5 8 7 6 7 7 6 5
1 1 7 8 7 8 4 1 3 10 5 0 7 6 6 6 6 3 3 1 4 3 10 7 9 5 24 6 4 3 3 9 12 14 14 12 9 7 7 7 8 7 8 11 15 15 16 16 17 16 13 13 14 11 11 11 10 9 9 9 9 9 7 6 6 6 5 6 4 4 5 6 5 4 4 4 5 5 5 7 7 7 7 6 6 6
0 4 4 3 6 4 6 2 1 1 1 7 5 4 3 6 4 3 6 2 2 6 10 13 16 12 16 3 9 10 9 11 12 7 7 7 8 9 7 7 7 9 10 11 12 11 11 10 12 12 15 14 11 10 11 11 11 9 10 10 10 10 7 6 6 6 6 6 5 5 6 6 6 5 4 5 6 5 5 6 7 7 6 6 6 6
0 2 1 2 5 5 4 5 3 2 2 5 2 2 4 2 6 3 4 4 1 10 2 2 12 12 12 4 5 6 3 7 13 13 10 8 10 9 5 7 7 9 9 9 8 9 9 9 10 11 14 14 14 11 12 11 10 10 10 10 11 8 8 6 6 6 5 5 5 5 5 5 5 5 4 5 7 6 7 7 8 7 7 7 6 6
5 8 2 1 4 9 3 7 2 2 1 3 5 4 1 6 7 5 2 2 6 8 1 4 6 5 18 21 3 6 10 10 10 9 10 9 8 6 5 7 7 7 6 8 9 9 10 13 14 15 15 13 15 16 15 13 11 10 10 11 11 10 8 7 6 6 6 5 5 5 5 4 4 4 5 6 6 6 6 6 7 8 7 7 8 7
8 1 2 5 2 6 9 7 2 1 6 6 7 5 4 1 1 5 6 1 7 7 5 2 2 11 13 10 16 18 18 16 12 14 9 7 8 7 5 6 6 6 8 9 9 10 12 13 14 15 16 16 15 15 14 13 12 10 10 10 11 10 8 7 6 6 6 6 5 4 4 4 3 4 5 5 5 6 5 5 7 7 7 8 8 9
4 8 7 9 6 6 12 15 12 7 10 10 3 10 9 9 5 6 3 7 11 9 2 5 2 10 1 7 6 20 21 17 8 9 9 8 6 3 3 4 5 6 7 8 10 12 13 14 15 15 15 15 15 15 14 13 12 11 10 10 10 10 8 8 7 6 6 5 4 4 4 3 3 4 4 5 5 5 5 6 7 7 7 8 8 8
11 10 4 3 1 8 12 3 7 8 6 2 3 5 6 9 7 6 4 3 4 6 9 3 9 4 8 1 2 3 5 7 8 9 7 12 9 4 5 8 9 8 8 9 10 11 12 13 12 12 13 14 14 15 13 14 12 11 11 11 11 11 10 8 8 6 6 5 4 4 4 4 4 4 4 4 4 4 5 7 7 8 8 8 9 10
2 7 0 0 2 3 2 3 1 4 7 5 6 7 7 2 6 1 2 1 3 4 16 1 11 13 4 9 5 8 4 6 7 7 7 13 9 4 8 9 9 9 9 10 12 12 12 10 11 13 14 13 13 13 16 15 13 13 12 11 10 9 8 8 7 6 6 5 4 4 3 3 3 4 4 4 5 6 6 6 7 7 8 9 9 10
7 6 0 4 5 1 1 0 1 5 3 10 4 7 2 2 4 5 6 2 2 7 12 3 16 21 14 15 2 2 4 10 12 10 13 13 4 7 11 11 11 11 11 9 10 10 11 12 14 13 12 15 16 17 15 14 12 12 12 13 12 10 10 8 7 6 5 4 4 3 3 3 3 3 3 3 5 6 6 6 6 7 8 9 9 10
5 9 4 3 3 2 2 1 2 1 3 3 3 3 6 3 1 2 4 5 6 6 8 11 21 20 20 16 2 7 12 13 15 12 11 11 9 12 12 13 11 6 6 9 12 11 11 13 15 16 17 15 14 13 13 12 12 11 11 11 12 12 10 9 6 6 4 4 3 3 2 3 2 2 2 3 5 6 6 7 7 8 9 10 10 10
1 7 3 2 3 0 0 4 8 5 1 1 1 1 2 2 2 6 8 3 5 5 1 19 17 21 9 8 10 18 13 15 11 10 12 13 13 13 12 12 11 10 11 11 11 12 13 14 15 15 16 16 17 15 12 13 11 13 12 12 9 8 8 7 7 5 5 4 3 2 2 2 2 2 3 4 5 5 6 7 8 9 10 10 10 11
3 3 10 1 5 2 4 7 13 16 12 4 2 2 1 0 3 4 1 5 6 5 7 8 14 24 7 12 12 13 11 13 13 13 11 11 12 12 13 13 11 11 11 12 12 12 14 14 13 13 11 10 9 9 11 12 13 12 11 11 11 12 9 8 6 6 4 4 3 3 3 2 1 2 3 5 5 6 6 6 8 8 9 10 11 11
2 2 12 2 1 5 11 2 4 1 11 12 14 13 17 11 4 2 12 2 2 4 9 6 20 22 7 6 7 6 8 9 10 12 12 11 13 12 13 12 10 10 12 12 12 12 12 11 10 9 8 8 10 11 13 12 11 13 12 11 10 9 8 7 6 6 5 4 3 3 2 2 2 2 3 5 5 5 6 7 8 9 10 11 11 10
5 2 2 9 12 13 10 0 2 3 5 6 10 11 11 8 6 5 11 10 1 7 4 3 2 28 3 5 5 7 8 9 11 12 11 11 12 12 12 11 9 10 11 12 12 11 10 10 11 12 13 14 16 13 12 12 12 13 12 11 9 9 8 7 6 5 5 4 3 3 2 2 2 3 4 4 5 5 7 7 9 9 10 11 11 10
4 2 4 10 8 2 2 2 1 1 3 1 5 2 6 13 16 16 12 3 7 2 5 1 4 23 15 5 4 6 8 9 9 11 13 10 7 8 9 8 10 10 11 9 7 6 7 8 8 10 13 14 13 13 14 10 11 11 11 9 8 9 8 7 6 5 5 4 3 3 2 3 3 3 4 4 4 6 7 8 8 9 10 10 9 11
4 5 7 4 3 8 5 2 3 4 1 3 4 9 10 6 7 2 3 1 2 17 9 10 19 20 15 4 2 1 2 5 5 5 6 8 8 8 8 8 8 9 8 8 9 10 8 9 13 15 15 15 14 10 12 11 12 11 9 9 9 8 8 7 6 5 5 4 4 4 3 3 3 3 4 4 4 6 7 8 8 8 9 9 10 10
7 6 9 8 14 14 14 15 11 4 10 5 2 2 9 17 17 5 8 9 13 13 14 10 18 25 21 2 2 3 5 5 4 6 4 7 7 7 8 9 10 9 11 11 9 9 14 15 13 12 13 12 12 13 11 10 12 11 9 9 8 9 8 7 5 6 5 4 4 4 3 3 3 3 3 4 5 6 7 7 8 8 8 8 10 11
4 4 13 15 16 17 18 14 2 8 6 6 8 14 14 14 17 15 10 10 20 5 8 16 27 27 24 25 23 13 4 12 9 7 8 10 10 11 11 11 10 11 12 12 12 11 7 8 14 15 14 13 12 12 12 12 11 11 11 10 9 8 8 7 6 6 5 5 4 3 3 3 3 2 3 3 4 5 6 7 8 8 9 8 9 11
2 5 13 19 21 20 17 18 11 10 9 8 9 10 15 15 15 17 18 26 11 11 15 23 31 16 22 28 33 32 16 16 17 19 12 9 10 12 14 12 9 9 8 7 8 12 15 15 13 13 15 14 14 12 11 11 12 13 12 11 9 8 7 6 6 6 5 5 4 4 3 3 2 2 2 3 4 6 6 7 7 8 8 8 9 10
4 9 12 16 21 21 21 23 22 5 8 7 11 13 15 18 16 20 27 31 17 14 26 26 14 13 21 29 36 29 17 16 18 20 16 13 10 7 5 8 11 12 10 11 13 13 13 14 15 16 15 15 14 14 13 12 11 11 9 9 8 7 7 7 7 6 6 5 4 3 3 2 2 1 2 3 4 6 6 7 7 8 8 8 9 9
2 10 12 15 19 17 21 24 20 10 6 7 8 13 17 19 21 24 29 27 27 30 27 20 17 20 24 32 31 21 16 13 13 12 11 10 9 6 9 11 10 11 12 14 15 15 15 16 15 15 16 15 17 16 14 13 13 12 12 10 8 8 7 7 6 6 6 5 4 3 2 2 1 1 3 4 5 6 6 7 7 7 8 8 9 10
6 10 12 10 11 15 18 20 14 11 13 16 16 16 22 23 14 20 26 27 30 22 22 22 18 23 28 32 23 17 22 18 15 18 23 23 17 14 15 15 11 13 13 14 14 15 16 15 14 14 16 17 18 18 15 12 11 10 10 9 9 8 7 6 6 6 5 5 4 3 2 1 1 2 3 4 5 5 6 7 7 7 7 8 8 10
5 8 5 6 11 16 15 19 14 7 11 13 16 24 30 26 20 20 23 24 12 17 20 15 18 23 29 23 6 14 19 20 19 21 24 21 18 14 16 18 16 13 13 14 16 15 14 14 16 17 19 19 18 17 14 13 13 12 11 10 9 8 7 7 7 6 5 5 4 3 1 1 2 2 3 4 6 6 6 6 6 6 7 7 9 9
7 4 6 9 13 16 17 6 3 4 1 5 17 31 28 21 20 27 26 18 14 13 12 17 25 25 24 17 15 16 13 9 14 19 20 18 16 13 16 19 21 13 12 15 14 15 16 18 19 20 19 16 17 17 14 13 13 12 11 11 9 8 8 7 7 6 6 5 4 3 2 1 2 2 4 5 6 6 6 6 6 6 6 8 8 9
5 9 11 7 13 11 14 7 5 4 13 20 15 2 11 24 25 26 24 20 16 10 15 18 24 27 28 24 21 21 19 18 20 20 19 16 13 13 17 19 17 13 13 12 14 16 16 15 14 15 18 19 17 15 12 13 14 12 10 10 9 9 8 8 7 6 5 4 3 3 2 2 1 3 5 5 6 6 6 5 5 6 6 7 8 9
11 12 13 8 9 12 3 7 5 15 20 14 4 5 10 11 14 21 17 17 17 16 19 24 28 31 32 27 22 21 22 25 23 23 23 7 8 14 22 21 12 13 13 12 12 12 14 16 15 14 14 14 16 14 14 13 12 11 10 10 10 8 8 7 6 5 5 4 4 3 2 2 1 3 5 6 6 6 5 4 5 6 6 7 9 10
15 14 8 7 8 3 4 9 12 19 3 6 10 16 15 6 11 5 14 14 15 19 22 22 23 29 30 27 22 21 23 21 22 22 17 6 15 19 20 16 15 13 13 13 14 15 14 15 18 20 19 15 15 13 16 14 12 11 10 8 9 9 6 6 6 6 5 4 4 3 3 1 2 4 5 6 6 5 5 4 6 7 7 8 8 8
16 10 9 11 10 12 11 14 20 7 15 18 18 20 17 13 12 12 16 17 14 19 22 19 23 28 27 23 26 22 19 11 12 20 13 11 18 18 17 17 18 13 13 12 12 14 16 17 17 16 16 18 16 15 13 12 12 11 11 9 7 7 7 6 6 6 5 5 4 4 3 1 2 5 5 5 5 5 4 6 7 7 6 9 9 10
17 17 12 14 9 14 13 11 7 7 14 18 27 30 10 7 9 6 5 13 15 28 26 20 25 27 26 25 21 20 3 5 15 19 18 14 14 15 12 13 11 7 7 6 4 6 9 10 12 14 20 20 17 15 12 13 12 12 10 8 8 7 7 7 6 6 5 5 5 4 3 2 3 5 5 4 4 4 5 5 5 6 6 8 10 11
18 18 16 16 10 8 10 11 13 13 18 16 23 23 12 10 10 4 3 14 18 30 27 21 23 24 26 22 18 10 3 11 15 17 15 14 6 9 9 10 9 6 7 10 13 13 14 14 18 19 18 20 20 13 13 13 12 12 9 9 8 7 7 7 6 6 6 5 5 4 2 3 5 5 5 5 4 2 4 6 6 7 6 7 9 10
20 15 15 14 14 14 14 13 14 10 13 17 19 19 5 10 12 7 5 15 24 29 23 20 21 23 21 18 15 10 11 13 15 17 13 4 5 6 10 9 7 7 6 7 7 12 15 18 18 19 23 23 16 14 14 12 11 13 11 8 8 8 6 7 7 6 6 6 5 3 2 4 5 5 5 5 3 2 3 5 6 6 7 7 8 10
13 12 14 22 19 22 22 16 10 7 8 11 18 4 12 11 11 5 17 23 24 13 10 14 18 20 15 14 12 10 15 18 18 8 6 4 3 1 1 3 4 7 11 11 11 13 18 15 16 19 17 13 15 14 11 12 13 11 8 9 8 7 6 7 7 7 6 6 4 3 4 4 5 6 5 4 2 2 3 4 6 7 7 7 8 8
6 9 8 12 15 15 16 19 19 13 7 11 7 16 12 8 7 17 25 23 16 8 6 11 15 13 12 15 12 14 16 17 11 4 4 4 5 3 3 6 8 8 7 9 14 22 19 15 15 17 14 10 12 12 11 12 13 10 9 8 8 7 7 7 7 7 6 6 4 3 4 5 5 5 3 1 1 3 4 4 4 5 6 7 8 10
14 12 13 15 10 9 9 12 10 13 9 25 9 7 6 14 19 21 17 15 14 8 10 8 11 12 12 12 14 16 16 10 8 9 7 6 7 8 9 11 12 14 16 16 14 18 19 17 18 19 16 11 10 10 11 15 16 13 8 8 9 8 8 7 7 7 6 5 4 4 6 6 6 3 2 1 3 3 5 4 6 6 6 7 8 9
14 10 3 10 12 12 17 16 15 20 21 17 21 17 17 25 22 19 16 17 18 14 9 12 11 14 12 13 14 14 14 9 3 5 7 7 8 6 8 7 7 10 6 4 16 20 18 20 19 16 10 11 8 8 9 14 18 10 10 9 9 8 7 7 7 7 6 4 4 4 5 5 3 1 0 3 4 3 4 6 5 5 5 6 7 8
16 19 15 15 14 15 15 18 20 11 10 16 25 23 23 29 26 23 20 19 16 14 13 9 14 13 12 13 14 14 12 11 13 14 15 15 14 14 14 16 17 15 15 17 16 15 17 22 23 16 12 9 10 8 9 7 18 17 13 9 10 9 9 8 7 6 5 5 5 5 5 4 2 1 3 4 4 4 5 6 5 6 5 6 7 8
19 27 22 19 17 13 21 6 3 9 13 12 18 20 22 19 21 21 21 18 16 17 11 8 10 9 10 12 11 9 13 14 14 12 11 8 11 12 11 10 9 9 13 13 13 14 14 15 20 18 15 11 9 9 8 6 10 20 11 10 9 9 9 9 8 6 8 6 4 6 6 4 3 3 4 5 3 2 2 3 4 4 6 5 6 8
18 15 17 18 12 11 18 13 17 16 18 19 19 19 18 16 17 17 20 20 21 17 12 8 10 7 8 9 14 16 17 13 15 15 12 9 11 15 17 18 16 16 20 20 18 17 17 21 19 17 14 15 10 8 7 8 5 7 10 11 10 9 10 9 8 7 6 6 5 3 2 4 3 3 3 4 3 1 2 3 3 4 5 5 7 8
12 10 17 18 16 18 18 14 20 21 22 17 14 13 17 19 21 17 17 17 18 16 13 12 6 6 8 10 16 18 17 13 14 13 12 14 14 14 15 17 19 15 12 13 16 19 17 15 18 17 15 14 12 9 9 8 8 8 9 9 9 10 10 9 7 7 8 7 5 2 2 4 5 5 4 4 4 4 5 3 2 3 4 5 6 7
3 6 17 7 16 20 15 17 12 15 10 11 9 13 16 17 19 22 21 18 11 10 11 9 10 14 11 17 16 13 13 12 15 15 15 13 12 13 15 17 20 23 22 20 18 20 20 17 15 16 14 12 11 10 9 9 8 9 10 9 10 10 10 8 8 7 8 5 4 3 3 4 4 4 5 4 2 0 3 5 5 5 6 7 7 7
7 9 3 6 15 15 15 16 15 17 17 19 20 19 20 20 21 20 14 10 12 17 18 19 15 11 11 14 14 13 15 15 14 13 15 16 18 19 17 18 20 23 21 17 13 12 13 15 26 19 13 11 10 10 10 9 9 8 8 8 9 9 12 9 8 9 7 5 4 4 4 5 4 5 6 6 7 7 4 5 8 6 5 7 13 18
13 14 6 14 14 17 11 16 14 19 21 20 19 17 18 16 16 17 18 20 19 18 17 18 17 16 14 15 13 14 16 18 18 15 16 14 16 18 21 22 23 22 22 19 16 15 18 15 13 12 13 12 11 10 10 10 9 9 8 9 9 9 9 9 9 8 6 5 5 4 5 4 4 3 5 4 4 3 8 10 3 4 5 10 14 16
Wind_Direction
333 177 219 219 218 214 219 198 206 201 155 96 110 155 240 239 276 281 236 264 0 297 246 255 255 261 267 269 273 263 185 245 251 246 243 243 238 225 217 217 220 221 226 186 188 184 189 189 186 184 178 173 170 172 174 168 173 173 170 161 178 178 157 163 174 188 194 203 216 215 214 229 244 263 268 261 265 251 255 256 250 248 268 275 272 282
82 242 248 228 212 201 212 180 101 81 95 172 177 205 269 185 258 252 283 7 314 170 292 299 287 266 265 268 271 265 177 253 243 237 243 249 239 228 218 222 221 225 174 160 188 190 189 193 191 182 179 170 171 189 175 175 178 176 171 171 174 161 166 179 184 184 182 187 190 207 241 259 266 284 280 280 251 251 253 257 252 250 263 269 273 285
95 212 248 195 177 96 69 120 143 153 157 94 194 215 287 264 255 286 331 0 316 124 262 291 283 270 267 266 266 263 241 243 252 207 236 238 246 226 219 227 223 206 210 189 200 190 193 191 191 184 186 188 186 178 181 181 173 174 170 177 174 166 172 187 186 175 193 199 200 177 221 211 285 240 263 269 271 277 273 254 246 247 263 268 273 275
278 263 262 195 130 115 54 92 121 84 82 149 119 159 236 219 23 304 284 3 256 177 292 300 287 277 263 254 252 261 257 250 246 224 230 233 239 222 221 216 211 213 205 203 195 194 190 191 191 189 192 189 184 180 183 182 180 173 176 177 176 180 182 182 189 189 199 192 184 177 186 276 247 282 299 293 294 294 294 281 257 272 285 285 287 287
218 210 226 114 137 136 147 139 135 165 223 266 192 218 252 247 226 197 261 302 269 340 111 294 278 274 232 236 262 346 326 280 264 241 250 247 232 237 239 223 210 211 205 207 197 194 190 193 198 196 188 180 189 186 186 183 182 177 181 179 181 181 183 184 184 190 181 170 161 143 358 318 297 270 284 305 290 273 276 283 287 285 286 284 284 286
270 235 136 101 96 86 119 193 217 151 231 316 226 210 220 205 246 259 345 11 7 327 343 12 340 296 287 234 259 280 351 294 256 217 252 245 223 219 229 227 214 223 209 203 196 194 194 198 197 193 189 191 192 191 190 182 183 175 175 176 179 177 176 184 189 180 163 182 180 176 212 263 273 284 273 260 275 289 282 275 279 278 265 265 269 271
221 43 168 184 156 168 191 222 234 166 196 74 264 194 211 220 214 176 298 43 310 205 310 39 106 289 125 160 236 277 266 273 269 206 256 257 204 210 226 226 210 212 209 205 198 194 196 201 196 196 196 195 193 195 178 182 178 180 177 177 175 174 179 178 181 166 167 169 180 190 203 215 236 266 271 237 240 260 272 276 276 280 278 264 269 274
94 49 70 67 132 166 182 246 234 161 131 234 247 114 114 125 161 196 143 182 235 58 312 221 183 264 287 188 214 239 266 269 285 275 249 256 249 225 226 220 216 211 202 194 197 199 201 196 196 197 198 193 196 179 180 181 179 180 181 172 174 172 171 171 160 165 167 175 182 184 200 207 216 228 260 277 279 269 277 283 285 293 290 286 280 288
128 160 159 141 132 156 211 212 190 165 150 221 197 120 146 153 176 150 135 193 223 18 294 276 240 300 259 257 335 9 215 265 257 259 268 261 249 239 229 221 217 210 200 192 196 201 199 198 201 199 194 196 184 184 183 183 181 183 177 171 164 171 168 163 164 160 175 181 177 185 191 220 226 232 250 263 268 279 275 277 281 280 284 286 286 286
310 160 209 161 147 213 220 298 181 173 202 225 123 90 81 73 67 105 121 146 309 64 265 216 183 200 278 160 163 353 179 237 248 249 252 256 257 245 240 228 215 202 201 205 207 205 203 201 199 196 189 183 193 185 183 183 178 178 165 166 165 172 169 164 166 164 169 181 177 180 196 217 238 236 254 257 266 263 265 271 277 283 285 292 298 298
295 286 170 143 191 198 133 80 127 355 81 124 105 74 22 36 34 32 72 80 24 253 249 235 183 181 275 195 184 149 195 200 226 268 273 273 268 257 230 220 199 200 204 207 209 208 206 198 192 181 190 188 183 187 182 183 182 176 166 165 170 174 161 164 164 162 179 172 176 185 198 211 237 248 259 277 274 273 274 280 285 285 289 292 296 301
113 41 221 252 92 108 102 77 36 68 122 121 123 132 29 337 4 40 341 41 180 269 236 286 182 183 221 275 252 231 286 221 196 208 226 245 251 249 212 216 208 204 207 204 198 198 182 175 186 183 192 186 187 182 189 185 181 176 170 162 166 164 166 167 163 164 177 172 181 191 197 211 224 238 250 262 276 280 286 291 294 295 299 301 301 298
263 206 224 105 213 132 125 85 2 13 65 98 87 44 83 274 21 318 30 264 199 235 193 73 138 326 237 245 213 269 262 248 226 211 193 208 236 239 220 217 210 210 197 195 195 184 186 188 185 192 193 183 189 193 187 185 181 177 167 165 162 172 170 169 165 171 176 174 185 188 197 208 223 232 240 255 263 270 276 286 289 301 305 309 308 305
279 29 126 202 84 227 145 171 216 247 209 146 158 148 98 297 139 265 268 210 303 280 260 135 127 246 275 277 214 225 228 227 212 216 228 206 217 225 205 221 222 210 201 198 192 195 194 193 193 194 191 192 192 190 185 182 180 179 170 169 166 165 169 163 164 173 175 185 188 187 193 209 220 235 243 249 259 266 271 278 285 291 295 296 289 292
312 297 235 149 238 175 183 205 193 161 156 198 117 158 187 143 155 241 209 254 260 260 280 269 79 239 106 244 213 206 219 226 210 220 224 246 252 255 228 241 238 217 211 199 198 200 199 197 195 194 194 192 193 188 183 182 182 171 173 164 162 153 169 164 172 169 177 179 186 188 197 209 221 239 246 251 258 269 284 284 287 287 288 286 287 285
221 245 255 175 297 149 186 222 105 105 70 172 168 73 107 222 128 229 203 196 290 333 314 182 214 188 213 0 286 258 280 241 233 230 234 253 247 221 263 243 232 221 210 202 207 207 208 200 194 194 194 196 191 186 183 182 178 177 172 168 165 161 166 169 168 177 173 184 177 185 201 211 225 247 252 263 269 281 281 284 285 287 285 283 286 286
30 269 298 326 26 199 207 114 212 139 199 204 121 204 206 145 147 89 357 59 73 59 266 134 281 264 284 268 206 242 208 242 231 226 229 240 232 175 234 241 232 222 211 203 208 208 201 195 200 198 195 192 187 185 188 183 176 172 162 163 160 156 157 168 170 171 176 176 174 195 199 209 224 230 252 273 291 289 284 283 285 285 284 285 283 287
171 245 282 125 224 261 13 353 53 24 148 106 211 227 146 137 110 133 218 333 68 214 264 27 266 285 283 288 139 214 240 228 233 221 226 237 198 209 235 237 229 220 216 211 215 211 201 198 199 198 198 195 191 188 180 175 172 171 163 162 157 156 165 174 163 170 175 175 182 193 201 211 221 246 264 282 292 288 288 288 290 289 291 287 289 289
139 274 234 239 52 28 341 123 46 345 41 148 190 219 121 222 190 305 86 250 254 242 268 283 272 267 257 257 140 244 213 224 232 228 233 239 223 226 235 241 239 223 205 209 211 206 202 200 200 198 198 193 190 183 174 161 157 157 160 159 157 163 164 162 161 165 165 168 180 188 206 220 238 257 278 292 285 284 285 294 292 291 288 291 291 291
157 206 285 358 117 288 5 131 202 193 332 75 52 64 0 100 173 142 198 200 110 259 26 274 286 270 250 188 178 237 215 212 213 217 219 220 216 216 225 233 229 211 213 212 210 209 207 204 203 198 191 186 185 177 169 154 149 159 157 152 146 133 138 145 155 160 162 170 176 194 208 231 255 284 298 294 288 286 294 294 293 293 293 291 294 290
209 104 240 46 299 59 193 188 213 179 167 182 153 233 353 335 231 111 336 157 184 203 210 274 285 274 255 168 175 217 204 198 189 202 208 215 224 218 220 222 221 211 212 213 210 210 207 205 201 197 191 182 166 162 153 160 164 155 148 146 149 149 158 156 153 153 159 165 183 192 220 241 249 286 286 280 281 290 292 292 293 293 292 295 289 292
136 167 221 150 295 228 244 204 238 155 191 175 175 193 187 146 160 134 255 66 136 167 235 158 251 267 255 167 172 182 192 173 203 199 206 214 220 214 221 229 216 212 219 213 215 210 205 202 195 184 169 165 167 167 168 165 155 152 156 151 149 146 149 146 154 156 160 169 182 199 227 232 273 278 278 281 293 296 297 297 298 296 297 291 292 296
159 130 205 222 224 233 244 327 304 286 158 188 181 215 177 190 130 160 237 235 51 252 87 181 51 268 191 152 132 161 175 188 194 202 208 212 217 215 224 223 221 218 218 215 213 209 202 195 191 183 180 180 182 174 161 158 157 155 153 151 152 143 148 145 149 151 154 168 176 213 219 236 257 260 268 283 294 297 299 299 297 298 296 296 298 301
105 125 205 258 280 337 26 321 322 359 111 87 273 75 131 198 196 209 226 170 188 194 203 269 236 263 270 94 170 171 191 191 201 194 203 218 213 230 227 226 220 220 227 225 213 202 194 178 170 171 181 185 184 175 172 160 150 151 153 149 141 143 141 141 148 147 153 162 185 203 215 231 244 253 266 281 290 295 298 296 296 298 297 300 305 307
146 225 171 228 346 292 310 28 45 343 21 227 199 206 205 229 232 235 75 85 234 228 172 144 248 257 275 64 110 239 143 219 215 234 214 222 235 235 234 235 228 226 228 218 207 196 177 174 180 190 190 188 183 172 163 163 157 154 150 144 142 137 140 139 143 147 157 172 188 207 210 226 237 247 269 288 298 298 298 297 300 302 303 307 308 309
178 165 155 191 221 236 243 241 234 210 209 213 253 123 186 204 205 145 247 213 229 236 145 204 250 254 255 199 146 224 213 246 259 251 243 232 243 233 238 233 227 219 220 216 201 180 192 194 193 189 190 185 183 177 166 158 155 150 142 143 136 139 141 145 142 152 162 178 191 200 210 219 231 252 279 295 300 299 301 303 303 306 306 309 308 308
185 187 187 206 215 228 238 252 199 115 80 189 222 190 210 214 212 209 232 235 230 217 162 228 237 254 270 277 272 243 202 263 263 230 222 246 234 234 239 235 224 218 218 211 200 201 190 190 198 196 188 187 180 177 171 162 154 147 140 137 139 139 141 147 149 156 167 182 191 199 203 214 235 264 284 303 305 306 306 305 305 304 305 308 305 302
90 198 210 217 226 233 240 253 239 157 196 216 191 216 214 202 201 202 213 236 215 77 242 237 243 255 267 276 271 268 258 269 276 279 265 238 239 227 230 230 228 228 224 201 198 197 200 201 194 191 188 180 181 174 167 160 151 151 149 147 146 143 143 147 152 161 175 177 191 192 202 214 247 266 301 313 312 307 304 301 299 302 302 304 302 300
179 223 218 224 232 235 240 246 248 181 213 197 199 208 214 211 201 206 227 238 228 216 239 245 255 248 257 256 261 269 276 268 270 272 269 264 255 233 232 230 221 221 215 202 210 206 203 198 196 192 185 184 173 174 163 150 147 141 136 137 142 144 147 149 154 167 172 180 183 191 193 228 247 298 334 325 310 301 298 297 299 299 298 297 298 295
158 237 236 234 247 242 247 248 249 214 229 237 214 223 227 221 210 213 233 235 231 236 245 259 258 263 259 260 262 276 280 272 271 275 277 261 247 238 236 239 227 221 212 211 210 208 206 204 196 188 183 178 179 173 163 157 155 153 146 147 147 144 148 149 163 167 175 177 180 182 202 228 282 352 350 320 302 295 296 297 298 294 296 298 295 293
171 240 225 249 261 253 251 254 250 235 241 247 250 251 245 241 226 223 237 243 243 253 261 263 272 265 259 259 271 289 281 282 279 276 273 272 270 263 263 260 237 226 218 215 212 211 207 201 193 183 182 185 181 176 169 159 149 143 142 145 147 149 154 154 162 171 169 174 170 185 202 217 30 10 331 309 295 290 292 297 292 292 295 295 291 288
187 250 238 260 257 260 254 257 257 226 229 236 250 253 252 247 239 238 240 237 242 252 260 273 267 257 257 264 268 250 263 266 266 266 266 268 269 269 267 269 265 235 218 214 213 207 202 194 189 186 189 186 180 172 165 155 153 150 152 150 151 151 150 158 166 167 168 168 170 181 168 84 27 352 314 298 287 287 291 284 283 292 295 292 291 293
192 187 213 230 242 247 255 260 159 172 142 269 237 238 245 260 251 248 251 253 231 235 253 254 252 256 269 276 269 258 242 237 255 257 263 266 264 258 259 262 261 247 222 218 208 204 200 195 193 191 189 179 176 175 171 152 147 156 152 151 149 141 153 163 166 162 163 164 166 162 130 73 24 331 297 286 281 284 276 273 288 294 294 292 294 297
194 206 226 207 240 245 248 239 120 158 229 235 244 266 232 245 250 255 256 259 255 204 237 244 260 267 270 269 264 268 273 260 250 253 251 255 265 262 255 252 252 245 237 219 207 205 200 196 193 189 184 179 175 167 149 156 147 141 138 134 140 151 158 162 161 160 161 156 157 145 116 80 43 298 285 279 278 276 275 286 293 293 290 292 301 307
204 207 227 208 241 243 174 95 217 229 236 249 0 257 236 248 254 256 266 258 256 251 244 246 255 262 263 266 268 270 268 267 267 266 263 234 208 242 254 255 240 237 234 219 209 202 196 190 183 172 166 166 161 152 146 137 132 128 130 143 147 156 154 157 151 155 158 153 151 134 104 86 339 281 277 277 274 272 278 292 298 301 306 308 311 311
216 211 215 225 211 41 115 201 234 239 267 338 280 256 255 250 241 277 276 257 251 252 250 248 252 258 262 267 270 261 259 267 275 274 271 184 213 232 249 253 248 235 228 219 206 201 187 180 176 176 174 156 140 146 144 138 140 132 137 141 145 147 152 149 150 154 152 154 150 132 101 111 261 272 270 275 275 279 297 315 318 313 310 309 306 303
219 219 209 241 201 229 214 214 234 322 322 288 281 264 229 212 231 218 253 262 259 250 248 247 251 253 259 261 258 263 267 278 284 276 268 192 228 230 230 239 242 237 222 221 198 199 188 183 176 163 143 139 145 142 145 139 132 127 131 139 145 145 151 152 156 157 158 158 143 121 124 168 251 263 267 266 281 290 319 331 318 313 313 311 309 307
211 216 204 226 215 214 229 235 239 219 239 251 243 250 234 176 210 198 196 274 263 263 252 240 244 253 254 252 254 259 316 300 271 270 269 251 215 232 223 235 246 234 220 191 159 155 151 149 139 144 142 137 136 131 130 134 132 129 134 141 148 153 154 159 160 160 159 149 131 125 144 196 241 254 264 270 273 305 327 311 302 304 314 310 309 306
215 218 224 222 231 218 226 229 227 224 234 228 253 253 233 175 163 150 151 253 251 253 255 239 240 242 246 248 248 242 163 252 256 262 267 260 206 219 217 227 223 204 179 168 162 155 154 148 138 134 129 130 132 145 136 134 136 136 136 146 153 157 154 163 163 163 158 138 130 130 159 211 237 246 257 270 269 325 321 313 309 306 306 302 301 297
211 207 216 225 228 225 230 231 235 213 235 227 237 249 150 144 113 97 276 258 249 248 246 240 235 237 236 233 233 212 204 237 251 253 260 263 195 201 194 200 180 166 160 149 150 153 137 122 125 131 142 145 142 140 141 138 139 143 143 146 151 153 162 163 162 158 133 124 126 141 186 227 228 239 244 260 279 334 304 305 309 312 313 304 303 299
202 214 207 219 216 223 221 240 255 271 251 244 239 174 138 131 125 167 234 249 251 252 220 215 218 227 222 219 209 208 219 220 231 247 77 119 79 131 101 142 165 154 152 146 136 123 121 143 143 150 151 141 138 142 138 143 142 142 144 146 147 162 159 149 147 137 126 121 131 154 209 234 225 233 243 241 285 323 308 309 314 313 307 305 301 298
217 202 231 218 225 223 225 227 228 240 226 236 235 144 151 94 213 220 234 242 257 245 200 200 214 216 208 207 203 214 225 227 228 85 156 147 188 149 143 120 104 79 78 100 132 131 124 139 133 112 112 118 136 139 144 145 144 141 143 145 152 152 141 143 142 127 122 129 141 173 210 221 238 234 233 246 55 1 326 315 311 302 302 300 301 298
176 188 195 198 215 227 234 241 236 246 197 217 152 137 208 200 235 232 249 257 255 227 200 218 218 215 198 211 211 216 229 228 198 202 187 179 151 174 165 163 158 154 144 135 132 146 144 145 148 141 134 140 141 145 153 145 139 139 144 145 152 140 143 142 131 123 125 133 154 184 211 223 222 227 228 46 49 11 322 323 317 312 304 300 302 296
162 216 188 211 183 202 211 206 219 212 223 173 156 195 196 211 224 232 230 250 249 246 225 214 216 221 199 202 210 223 229 218 183 180 194 194 186 158 163 153 128 97 89 53 149 156 150 139 126 129 132 135 146 148 156 154 137 141 138 141 138 138 137 132 122 122 128 146 166 192 214 218 215 216 153 59 41 14 327 326 313 307 300 303 302 299
153 219 204 227 194 207 221 217 224 215 220 176 192 212 211 211 219 228 231 235 243 242 233 211 220 219 196 207 216 213 221 208 207 198 192 203 187 170 170 181 170 169 160 159 159 155 153 152 148 136 136 148 146 152 150 161 140 136 138 143 142 148 142 129 123 124 136 151 169 197 207 214 193 146 76 64 55 18 338 323 322 311 311 307 304 300
199 213 222 235 234 219 245 233 71 216 222 210 211 215 223 223 223 230 237 246 241 244 230 207 223 212 198 204 208 222 219 210 203 208 214 200 184 174 146 133 129 88 138 138 145 154 152 140 121 130 138 144 153 147 157 150 154 143 146 139 145 143 134 126 127 139 148 156 180 200 203 171 120 81 61 58 51 35 293 291 298 296 297 299 301 305
229 219 227 238 224 213 242 199 226 213 219 216 217 224 234 230 225 218 233 238 246 245 241 215 229 212 198 182 201 217 222 207 205 208 198 183 181 174 173 169 159 168 165 168 164 149 140 143 144 153 147 146 157 151 149 144 138 119 130 140 143 134 126 122 137 139 144 165 190 210 183 102 92 81 65 51 48 353 305 289 273 282 284 294 312 305
248 203 242 230 234 223 238 205 219 226 231 223 210 218 232 236 242 236 229 232 241 248 247 240 206 211 187 195 209 218 223 205 199 202 191 193 186 177 175 174 166 162 172 148 142 138 138 153 153 151 151 147 153 153 147 142 130 129 131 137 137 124 123 134 148 143 149 166 184 161 101 81 56 59 57 56 31 350 328 302 282 282 291 304 304 293
316 157 236 190 229 241 250 252 259 265 262 255 229 220 224 228 232 239 239 240 242 258 253 241 204 221 198 217 219 217 222 215 205 197 192 191 184 180 182 176 178 169 153 157 162 161 166 165 153 155 146 143 144 144 142 137 129 133 140 139 132 130 135 142 144 137 142 159 154 117 98 79 70 45 45 20 61 141 243 278 295 300 301 305 303 306
297 251 298 282 253 248 234 236 228 248 248 246 239 228 226 228 236 241 244 241 230 237 241 243 237 226 222 225 223 211 218 222 212 191 196 196 193 190 181 178 175 154 163 134 138 158 138 154 143 146 139 134 138 139 141 136 136 139 141 130 132 139 140 140 135 136 136 146 137 126 99 77 64 53 45 29 359 344 325 234 258 291 306 310 327 331
229 238 216 243 244 253 235 244 235 242 249 245 248 243 237 233 234 240 240 240 236 231 233 236 243 240 231 233 223 208 213 221 220 194 202 203 202 191 184 173 164 162 157 150 143 154 158 162 150 128 127 137 139 141 141 139 141 144 137 136 141 151 152 144 133 127 132 137 134 128 104 98 83 70 57 38 18 358 334 331 313 238 298 332 338 336